Muncie, IN

9:55 AM EST on December 15, 2017 (GMT -0500)
Delaware County-Johnson

Weather History for KMIE - January, 2014

Change the Weather History Date:

Friday, January 17, 2014

  Actual Average Record
Temperature  
Mean Temperature 19 °F 26 °F  
Max Temperature 30 °F 34 °F 59 °F (1990)
Min Temperature 8 °F 19 °F -22 °F (1977)
Degree Days  
Heating Degree Days 46 39  
Month to date heating degree days 629 654  
Since 1 July heating degree days 2969 2852  
Cooling Degree Days 0 0  
Month to date cooling degree days 0 0  
Year to date cooling degree days 0 0  
Moisture  
Dew Point 13 °F    
Average Humidity 78    
Maximum Humidity 85    
Minimum Humidity 70    
Precipitation  
Precipitation T in 0.07 in 0.85 in (2012)
Month to date precipitation 0.42 1.23  
Year to date precipitation 0.42 1.23  
Sea Level Pressure  
Sea Level Pressure 29.85 in    
Wind  
Wind Speed 11 mph (WSW)    
Max Wind Speed 22 mph    
Max Gust Speed 29 mph    
Visibility 6 miles    
Events Snow    
T = Trace of Precipitation, MM = Missing Value Source: NWS Daily Summary

Daily Weather History Graph

Daily Weather History Graph

Search for Another Location

Airport or City:

Trip Planner

Search our weather history database for the weather conditions in past years. The results will help you decide how hot, cold, wet, or windy it might be!

Date:

Astronomy

Jan. 17, 2014 Rise Set
Actual Time 8:01 AM EST 5:42 PM EST
Civil Twilight 7:31 AM EST 6:12 PM EST
Nautical Twilight 6:58 AM EST 6:45 PM EST
Astronomical Twilight 6:25 AM EST 7:18 PM EST
Moon 7:28 PM EST (1/17) 8:28 AM EST (1/17)
Length of Visible Light 10h 40m
Length of Day
9h 41m
Full, 98% of the Moon is Illuminated
Jan 17
Full
Jan 24
Last Quarter
Jan 30
New
Feb 6
First Quarter
Feb 14
Full

Hourly Weather History & Observations

Time (EST) Temp. Windchill Dew Point Humidity Pressure Visibility Wind Dir Wind Speed Gust Speed Precip Events Conditions
12:53 AM 27.0 °F 20.5 °F 21.9 °F 81% 29.75 in 10.0 mi South 5.8 mph - N/A   Mostly Cloudy
1:16 AM 27.0 °F 21.6 °F 23.0 °F 85% 29.72 in 10.0 mi South 4.6 mph - N/A   Overcast
1:53 AM 28.0 °F 20.8 °F 24.1 °F 85% 29.74 in 9.0 mi South 6.9 mph - N/A   Overcast
2:53 AM 28.9 °F 23.9 °F 25.0 °F 85% 29.74 in 10.0 mi South 4.6 mph - N/A   Overcast
3:53 AM 28.0 °F 21.7 °F 24.1 °F 85% 29.73 in 10.0 mi South 5.8 mph - N/A   Mostly Cloudy
4:49 AM 28.4 °F 19.7 °F 26.6 °F 93% 29.70 in 3.0 mi SSW 9.2 mph - 0.00 in Snow Light Snow
4:53 AM 28.9 °F 19.8 °F 26.1 °F 89% 29.72 in 4.0 mi SSW 10.4 mph - 0.00 in Snow Light Snow
5:00 AM 28.9 °F 20.4 °F 26.1 °F 89% 29.70 in 1.8 mi SSW 9.2 mph - 0.00 in Snow Light Snow
5:10 AM 28.9 °F 21.1 °F 26.1 °F 89% 29.70 in 2.5 mi SSW 8.1 mph - 0.00 in Snow Light Snow
5:17 AM 28.9 °F 21.1 °F 27.0 °F 92% 29.70 in 6.0 mi SSW 8.1 mph - 0.00 in   Overcast
5:26 AM 30.0 °F 21.1 °F 27.0 °F 88% 29.70 in 7.0 mi SSW 10.4 mph - 0.00 in   Overcast
5:40 AM 30.0 °F 22.4 °F 27.0 °F 88% 29.71 in 8.0 mi SW 8.1 mph - 0.00 in   Overcast
5:53 AM 30.0 °F 22.4 °F 26.1 °F 85% 29.73 in 8.0 mi SW 8.1 mph - 0.00 in   Mostly Cloudy
6:53 AM 30.0 °F 21.1 °F 26.1 °F 85% 29.74 in 9.0 mi WSW 10.4 mph - N/A   Overcast
7:11 AM 30.0 °F 18.3 °F 26.1 °F 85% 29.73 in 9.0 mi WSW 17.3 mph 24.2 mph N/A   Overcast
7:19 AM 27.0 °F 13.5 °F 23.0 °F 85% 29.74 in 6.0 mi West 19.6 mph 24.2 mph N/A   Overcast
8:53 AM 21.0 °F 8.1 °F 16.0 °F 81% 29.82 in 6.0 mi WNW 13.8 mph - N/A   Haze
9:25 AM 18.0 °F 3.6 °F 12.9 °F 81% 29.82 in 1.5 mi West 15.0 mph - 0.00 in Snow Light Snow
9:39 AM 17.1 °F 2.5 °F 12.9 °F 84% 29.83 in 1.0 mi West 15.0 mph - 0.00 in Snow Light Snow
9:53 AM 17.1 °F 4.3 °F 12.0 °F 81% 29.86 in 1.5 mi West 11.5 mph - 0.00 in Snow Light Snow
10:39 AM 16.0 °F 1.1 °F 10.9 °F 81% 29.85 in 2.5 mi West 15.0 mph - 0.00 in Snow Light Snow
10:49 AM 15.8 °F -1.5 °F 10.4 °F 79% 29.85 in 5.0 mi West 20.7 mph - 0.00 in Snow Light Snow
10:53 AM 16.0 °F 1.1 °F 10.0 °F 77% 29.88 in 6.0 mi West 15.0 mph - 0.00 in   Haze
11:18 AM 16.0 °F 0.1 °F 10.0 °F 77% 29.86 in 2.5 mi West 17.3 mph - 0.00 in Snow Light Snow
11:28 AM 15.1 °F -0.1 °F 10.0 °F 80% 29.86 in 3.0 mi WSW 15.0 mph - 0.00 in Snow Light Snow
11:53 AM 14.0 °F -3.0 °F 8.1 °F 77% 29.89 in 8.0 mi West 18.4 mph 23.0 mph 0.00 in   Overcast
12:18 PM 14.0 °F -2.0 °F 7.0 °F 74% 29.85 in 10.0 mi West 16.1 mph - N/A   Mostly Cloudy
12:37 PM 15.1 °F -0.6 °F 7.0 °F 70% 29.86 in 10.0 mi West 16.1 mph - N/A   Overcast
12:53 PM 14.0 °F -2.0 °F 7.0 °F 74% 29.88 in 10.0 mi West 16.1 mph 25.3 mph N/A   Overcast
1:02 PM 14.0 °F -3.9 °F 7.0 °F 74% 29.86 in 7.0 mi West 20.7 mph 25.3 mph N/A   Overcast
1:51 PM 14.0 °F -3.0 °F 6.8 °F 73% 29.87 in 2.5 mi West 18.4 mph - 0.00 in Snow Light Snow
1:53 PM 14.0 °F -2.5 °F 6.1 °F 71% 29.90 in 3.0 mi West 17.3 mph - 0.00 in Snow Light Snow
2:07 PM 14.0 °F -1.4 °F 7.0 °F 74% 29.87 in 1.8 mi WNW 15.0 mph - 0.00 in Snow Light Snow
2:17 PM 12.9 °F -2.2 °F 7.0 °F 77% 29.88 in 0.8 mi West 13.8 mph - 0.00 in Snow Light Snow
2:26 PM 12.9 °F -3.9 °F 7.0 °F 77% 29.89 in 1.0 mi West 17.3 mph - 0.00 in Snow Light Snow
2:33 PM 12.9 °F -4.4 °F 5.0 °F 71% 29.89 in 3.0 mi West 18.4 mph - 0.00 in Snow Light Snow
2:53 PM 12.9 °F -3.9 °F 5.0 °F 71% 29.93 in 4.0 mi West 17.3 mph 24.2 mph 0.00 in Snow Light Snow
3:27 PM 12.0 °F -4.5 °F 6.1 °F 77% 29.91 in 2.5 mi West 16.1 mph - 0.00 in Snow Light Snow
3:30 PM 12.0 °F -4.0 °F 5.0 °F 73% 29.91 in 3.0 mi West 15.0 mph - 0.00 in Snow Light Snow
3:53 PM 12.0 °F -4.0 °F 5.0 °F 73% 29.96 in 3.0 mi West 15.0 mph - 0.00 in Snow Light Snow
4:13 PM 12.0 °F -4.5 °F 3.9 °F 70% 29.94 in 7.0 mi West 16.1 mph - 0.00 in   Overcast
4:43 PM 10.9 °F -4.7 °F 3.0 °F 70% 29.96 in 10.0 mi West 13.8 mph - 0.00 in   Overcast
4:53 PM 10.9 °F -4.7 °F 3.0 °F 70% 29.99 in 10.0 mi West 13.8 mph - 0.00 in   Mostly Cloudy
5:53 PM 10.0 °F -3.7 °F 3.9 °F 76% 30.01 in 6.0 mi WSW 10.4 mph - 0.00 in   Haze
6:53 PM 9.0 °F -3.2 °F 3.0 °F 77% 30.03 in 10.0 mi WSW 8.1 mph - 0.00 in   Clear
7:53 PM 9.0 °F -2.2 °F 1.9 °F 73% 30.05 in 10.0 mi WSW 6.9 mph - N/A   Partly Cloudy
8:53 PM 9.0 °F -0.9 °F 3.0 °F 77% 30.04 in 9.0 mi SW 5.8 mph - N/A   Overcast
9:53 PM 10.0 °F -2.9 °F 3.9 °F 76% 30.04 in 6.0 mi SW 9.2 mph - N/A   Haze
10:53 PM 10.9 °F -1.8 °F 6.1 °F 81% 30.05 in 4.0 mi SW 9.2 mph - 0.00 in Snow Light Snow
11:53 PM 12.0 °F -1.3 °F 7.0 °F 80% 30.04 in 4.0 mi WSW 10.4 mph - 0.00 in Snow Light Snow